GFSNE_925_thetae_072.txt.gz
Theta_e
322 322 322 323 323 321 318 317 316 315 312 314 312 309 308 306 304 304 304 303 302 301 300 300 300 299 298 297 297 297 297 296 298 301 301 301 300 300
321 322 322 324 322 319 319 316 316 315 316 314 310 308 306 304 302 303 303 302 302 301 300 299 299 299 298 298 298 298 298 297 297 297 298 299 299 299
321 322 322 323 319 318 317 316 313 313 313 307 307 305 303 303 302 303 302 301 302 300 299 298 297 297 296 296 295 295 295 294 294 293 293 295 296 297
322 322 321 321 319 318 317 315 311 311 310 307 304 303 303 303 303 301 300 300 299 298 297 295 293 293 292 291 290 289 287 286 285 285 285 286 290 292
321 320 320 319 317 317 313 310 308 308 307 306 304 303 304 299 298 298 298 298 296 294 292 288 286 286 285 285 285 284 284 283 283 284 284 284 287 289
316 319 320 319 318 313 311 307 306 305 304 304 305 299 298 297 297 297 296 295 293 290 289 288 287 287 287 286 286 285 285 285 285 284 284 285 286 285
318 318 320 318 315 314 309 306 305 304 301 302 298 297 297 296 295 295 292 291 290 289 289 289 288 288 288 288 287 287 286 285 283 283 286 286 286 287
317 316 314 311 310 307 306 306 303 300 298 297 296 296 296 295 292 291 289 289 290 289 289 288 287 287 288 288 287 286 284 284 283 284 285 285 285 288
314 312 308 305 304 302 301 301 300 299 298 296 295 293 292 290 289 288 288 288 288 288 287 287 287 287 287 286 286 285 284 284 284 284 284 284 285 288
307 305 304 299 299 300 298 296 294 292 291 290 288 288 287 287 286 286 287 286 286 286 285 286 286 286 286 285 284 284 284 284 285 285 285 285 285 286
299 298 299 298 296 297 296 290 286 286 285 285 284 284 282 281 281 283 284 285 285 285 285 284 285 285 284 284 285 285 285 284 285 286 285 285 285 287
293 292 294 294 292 291 290 288 285 283 282 281 281 280 279 281 278 279 281 282 283 284 284 283 283 282 284 284 284 283 285 285 285 286 286 286 287 288
287 287 287 289 285 284 285 285 285 283 281 282 281 281 281 281 280 280 280 280 281 282 282 280 281 281 281 282 283 283 284 286 287 287 286 286 286 286
285 284 283 282 281 282 282 282 281 280 281 280 280 280 280 280 279 279 278 277 278 278 278 278 278 279 280 281 282 282 284 285 286 287 287 286 285 284
284 283 281 281 280 280 279 279 279 279 280 280 280 280 279 278 277 277 277 276 277 277 276 276 277 278 279 280 281 281 282 284 286 287 287 287 286 286
282 281 281 281 281 279 278 278 279 278 278 279 278 277 276 276 276 276 276 276 276 277 277 277 277 277 278 279 280 281 282 284 286 287 286 286 286 286
282 281 280 280 281 280 279 278 278 277 277 277 276 276 276 276 276 276 275 275 275 276 276 276 276 277 277 278 280 280 282 283 286 287 286 286 286 285
282 282 282 281 281 280 279 278 277 275 275 275 275 275 275 274 275 275 274 274 275 275 275 276 276 277 277 279 280 282 283 285 286 286 286 286 286 286
282 281 281 280 279 278 278 277 276 275 273 274 274 274 273 273 273 273 273 274 274 274 275 275 275 276 279 280 280 281 284 286 287 287 286 286 286 285
279 279 278 277 277 276 275 275 274 274 273 273 272 272 271 271 272 272 273 273 273 273 273 273 275 275 277 278 277 276 277 278 285 287 286 286 285 284
278 277 277 276 275 274 274 273 272 272 271 270 271 271 271 270 270 271 271 271 271 271 273 273 274 273 273 274 276 278 280 281 282 286 286 286 285 284
276 275 274 273 273 272 272 271 271 271 270 270 270 269 269 269 269 270 270 270 270 271 271 272 272 273 274 275 276 277 278 280 284 284 284 285 285 286
272 272 271 271 270 270 269 269 269 269 268 268 268 268 268 268 268 268 269 269 269 270 270 271 271 272 273 274 275 276 277 278 285 284 284 283 283 282

GFSNE_925_thetae_075.txt.gz
Theta_e
320 321 321 322 322 322 323 323 322 322 319 318 316 315 315 315 312 310 309 307 306 305 304 303 302 301 300 299 299 299 298 298 298 298 298 300 300 301
321 323 323 323 322 323 323 323 321 319 320 317 316 316 313 311 309 308 306 306 305 303 303 302 301 300 299 299 299 298 298 297 297 296 296 296 297 298
321 322 322 322 323 323 323 322 321 319 317 316 315 314 310 307 305 305 305 305 304 304 303 301 300 299 299 298 297 296 295 295 294 293 292 291 291 291
322 322 322 322 322 322 322 321 318 317 316 315 310 309 307 305 303 304 305 305 304 303 302 300 298 297 295 294 293 292 290 287 285 285 285 284 284 287
322 322 322 322 323 322 321 318 317 316 315 313 307 306 304 304 305 304 303 301 301 300 298 297 293 289 288 287 286 286 285 285 285 285 284 284 283 283
322 322 322 323 321 319 318 318 317 312 310 309 306 304 304 303 301 300 300 298 298 297 295 291 290 289 288 288 288 288 288 287 287 286 285 284 283 284
321 322 322 321 318 316 316 316 313 310 307 306 305 303 302 300 300 299 297 297 296 294 292 292 291 291 290 290 289 289 289 287 286 285 284 284 283 285
320 319 318 316 316 319 317 318 315 309 306 305 302 301 300 299 297 296 294 293 293 292 291 291 291 290 289 289 290 289 287 286 286 284 284 284 284 284
319 318 317 317 317 315 310 309 306 305 304 301 299 298 297 296 294 292 291 290 291 291 290 290 289 289 289 289 289 288 287 285 284 284 284 285 285 285
319 318 316 312 308 307 304 302 299 298 296 295 296 294 292 291 290 289 289 290 290 289 288 288 288 288 288 288 288 286 285 285 285 285 285 286 286 286
311 308 306 303 299 299 300 296 293 292 293 292 290 288 287 287 287 287 287 287 288 288 287 287 287 287 287 286 285 286 285 285 285 285 285 285 286 286
297 295 294 295 292 294 295 292 288 285 285 284 284 283 281 281 280 281 284 285 285 286 286 286 285 285 285 285 285 285 284 284 284 285 287 287 286 287
288 287 287 288 288 288 288 288 287 284 283 283 283 283 283 283 283 282 282 282 283 283 284 282 283 282 282 283 283 283 283 284 285 286 287 287 286 287
286 285 284 286 286 286 286 284 283 282 282 283 282 283 283 282 282 282 281 280 280 280 280 279 279 280 280 281 282 282 282 283 283 285 286 287 287 285
285 284 283 284 283 282 282 281 281 282 282 283 282 282 282 281 279 279 279 279 279 279 279 278 278 278 279 280 281 281 282 282 282 283 285 287 287 287
282 281 281 282 280 279 279 280 280 280 280 281 281 281 280 279 279 279 279 279 278 278 278 278 278 278 278 278 279 280 281 282 282 282 285 287 287 287
281 281 281 281 282 282 280 280 279 279 279 279 279 279 278 278 278 278 277 277 277 277 278 278 278 278 278 278 279 280 280 281 282 283 285 286 287 287
282 283 284 284 283 282 282 280 279 278 278 277 277 277 277 276 276 276 276 276 277 277 277 277 277 277 278 278 278 279 280 282 284 284 285 287 287 287
284 284 283 283 281 281 280 278 278 276 275 276 276 275 275 275 274 275 275 275 276 276 276 276 276 276 278 279 278 279 279 278 278 279 281 287 287 287
281 281 280 279 279 278 277 277 276 276 275 274 274 274 273 273 273 273 274 274 274 274 274 274 274 276 276 277 276 275 275 275 277 279 281 285 287 286
279 279 278 278 277 276 275 275 274 274 273 273 273 273 272 272 272 272 272 272 272 272 273 273 274 273 273 274 275 276 277 277 278 279 280 281 287 286
277 276 275 274 274 274 273 273 273 272 272 271 271 270 270 270 270 270 270 271 271 271 271 271 272 272 273 274 275 275 276 277 277 277 279 282 286 287
273 273 273 272 272 271 271 271 270 270 270 269 269 269 269 269 269 269 269 270 270 270 270 271 271 272 272 273 274 275 275 276 277 278 279 283 283 284

GFSNE_925_thetae_081.txt.gz
Theta_e
320 319 318 317 318 318 318 319 319 318 316 319 320 320 320 320 319 318 317 317 315 315 316 312 311 312 312 311 309 306 304 303 302 301 300 300 300 301
320 318 318 317 317 318 318 318 320 319 319 319 319 320 320 319 319 318 317 317 317 316 315 312 311 310 309 306 304 303 303 301 300 299 298 298 298 298
318 318 318 317 318 318 318 319 320 320 320 319 319 319 319 319 318 318 317 316 316 314 312 310 309 306 305 304 303 302 301 300 299 298 297 295 294 291
318 319 319 319 319 319 319 319 319 319 320 319 319 319 319 319 318 317 316 315 313 313 311 309 309 305 303 302 301 300 299 298 297 295 292 288 286 285
317 318 318 318 318 318 318 319 320 320 320 320 319 319 319 318 316 315 314 312 311 311 309 308 306 304 303 301 300 298 295 291 289 287 286 287 287 287
317 317 318 318 318 318 319 319 320 320 320 319 319 318 317 315 314 311 308 309 307 306 305 305 305 302 301 299 293 290 289 289 289 289 288 288 288 287
317 317 318 319 319 319 319 320 320 320 320 319 317 317 311 308 309 310 307 306 303 303 302 302 301 299 297 292 291 291 290 290 290 290 289 287 287 286
317 317 318 319 319 320 320 320 320 320 319 318 318 316 312 309 309 306 304 299 297 299 299 294 293 293 292 291 291 290 290 289 289 288 288 287 286 285
319 319 319 319 320 320 320 321 320 320 319 318 316 316 312 311 306 302 299 297 293 292 294 294 293 292 291 291 290 290 288 289 288 288 287 286 285 285
320 320 320 320 321 320 320 317 313 310 309 308 308 308 305 302 302 300 296 294 292 291 291 290 291 290 290 289 288 288 288 287 287 286 285 285 285 284
320 320 320 320 320 319 318 311 300 297 296 299 299 297 296 296 296 294 291 290 288 288 288 288 288 287 287 287 287 287 287 286 285 284 284 284 283 284
317 316 318 319 317 316 315 303 291 289 290 290 290 289 289 288 288 289 289 288 287 285 282 284 284 284 284 284 285 285 284 284 283 283 283 282 283 284
309 304 304 302 299 297 299 295 293 288 287 287 285 284 282 281 281 282 282 283 284 283 281 282 281 281 281 281 281 282 281 281 281 281 280 280 281 281
292 290 289 290 290 290 289 286 285 285 284 283 283 283 282 281 281 281 282 281 281 280 281 280 280 279 279 279 279 279 279 278 279 279 279 280 281 282
287 285 284 284 284 284 284 284 284 283 283 283 281 281 281 281 281 280 280 279 279 279 279 279 278 278 278 278 278 278 278 278 278 279 279 278 279 279
282 282 282 282 283 282 283 283 283 282 282 281 280 280 279 279 278 278 278 278 278 277 277 277 277 278 278 278 278 278 278 278 278 278 278 278 279 280
282 282 281 281 280 280 280 280 279 279 279 279 278 278 277 277 276 276 276 276 276 276 276 276 276 276 276 276 276 277 277 277 277 277 276 276 276 276
282 282 281 281 280 279 278 277 277 277 277 277 276 276 275 275 274 274 274 274 274 274 274 274 273 273 273 273 274 275 274 274 274 274 274 275 275 276
280 280 279 279 278 278 277 276 276 275 275 274 274 273 273 273 273 273 272 272 272 272 272 272 272 273 273 272 271 272 272 272 273 273 274 275 275 275
278 278 277 277 276 276 275 275 274 273 273 273 273 272 271 271 271 271 270 270 270 270 271 271 271 271 271 270 271 271 272 272 273 273 274 274 274 275
275 275 275 274 274 274 273 273 272 272 271 271 270 270 270 270 269 269 269 269 269 269 270 270 270 270 270 270 270 270 270 271 271 272 273 273 274 275
273 273 272 272 272 271 271 271 270 270 270 269 269 269 268 268 268 268 268 268 268 269 269 269 269 269 269 269 269 269 270 270 271 271 273 274 274 275
270 270 270 270 269 269 269 269 268 268 268 268 268 267 267 267 267 267 267 267 267 268 268 268 267 268 268 268 269 269 269 270 270 272 273 274 275 276

GFSNE_925_thetae_084.txt.gz
Theta_e
320 320 319 318 318 319 318 318 318 317 317 318 318 318 318 317 318 319 319 319 318 318 315 315 312 312 312 312 313 313 314 314 312 310 307 306 304 303
320 320 321 321 320 318 318 318 319 318 318 318 318 318 318 318 318 319 319 319 318 318 317 316 314 311 312 313 311 312 313 312 308 305 303 302 300 300
320 320 320 320 319 317 318 318 318 318 318 318 318 318 318 318 318 318 319 319 319 318 318 318 317 315 315 312 311 311 310 306 303 302 300 299 299 297
319 320 320 319 318 318 317 317 318 318 318 318 318 318 319 319 319 318 318 319 318 318 318 317 317 316 315 311 309 307 302 302 300 299 299 298 296 293
317 318 318 318 318 318 318 317 317 318 318 318 318 318 318 318 318 318 318 318 318 317 317 316 315 313 308 306 304 301 300 300 299 296 293 290 288 286
316 316 316 316 317 317 317 318 318 318 318 318 318 318 318 318 318 316 314 316 315 315 314 312 311 309 306 304 301 300 298 292 289 288 288 288 288 288
316 315 316 316 317 317 316 316 316 316 317 318 318 319 317 314 315 315 313 313 311 310 309 308 307 306 303 301 299 294 291 290 290 289 289 289 289 288
315 315 315 315 316 316 317 317 316 316 317 317 318 318 318 314 314 314 311 306 300 303 303 302 301 301 301 299 294 292 293 291 289 289 289 289 287 287
317 316 316 316 316 316 317 317 318 318 318 318 318 318 318 317 313 310 309 308 302 297 298 294 295 294 293 293 293 291 289 289 289 288 288 287 286 286
318 318 317 317 316 316 316 316 317 317 317 317 317 316 315 313 313 308 303 297 293 292 294 291 291 292 292 291 290 289 289 288 288 287 286 286 285 285
319 319 318 317 317 318 317 316 312 307 306 305 305 303 303 303 303 302 294 293 289 287 289 289 288 288 289 289 289 287 287 285 285 284 284 283 283 283
320 319 319 319 318 318 318 310 301 294 292 290 290 291 291 292 293 295 292 289 287 284 283 285 284 284 284 284 284 284 283 283 283 282 282 281 281 281
315 314 314 311 313 312 309 300 293 289 286 285 284 283 283 283 284 285 286 287 285 281 280 283 281 281 282 282 282 282 281 281 281 281 281 280 280 280
300 295 292 293 293 293 293 290 288 287 284 283 282 281 281 281 282 282 282 282 282 282 281 281 280 279 279 279 279 279 279 279 278 278 278 278 278 278
287 286 285 284 284 284 284 284 284 283 283 282 281 280 280 280 281 280 280 279 279 279 278 277 277 278 278 278 278 278 278 278 278 278 277 277 278 278
282 282 283 283 283 283 283 283 282 282 281 280 279 279 279 278 278 278 277 277 277 277 277 276 276 276 276 277 277 277 277 277 277 277 276 276 276 276
283 282 281 281 280 280 280 280 280 280 279 278 278 277 276 276 275 275 275 275 276 276 275 274 274 273 273 274 274 274 274 274 273 273 273 274 274 274
281 281 280 279 278 278 278 277 277 277 277 277 276 275 275 275 274 273 273 273 273 273 272 272 272 272 273 272 273 272 272 272 272 272 272 273 273 273
279 279 278 278 277 277 276 275 275 275 275 274 274 274 273 272 272 271 271 271 271 271 271 271 271 271 270 269 270 271 271 271 271 271 272 272 272 273
276 276 276 275 275 275 274 273 273 273 273 272 271 271 271 270 270 270 269 269 270 270 270 270 269 270 270 269 270 269 270 270 270 270 271 271 271 272
274 273 273 273 273 273 273 272 272 271 271 270 269 269 269 269 269 268 268 268 268 268 268 268 269 269 268 268 268 268 268 269 270 270 271 271 271 272
271 271 271 271 271 271 271 270 270 269 269 268 268 268 268 268 268 268 267 267 267 267 267 267 267 267 268 268 268 268 268 268 269 270 271 272 272 273
269 269 269 269 269 269 269 268 268 267 267 267 267 266 267 267 267 266 266 266 266 266 267 267 267 267 267 267 267 268 268 268 269 269 270 271 272 273

GFSNE_925_thetae_087.txt.gz
Theta_e
317 317 316 316 316 318 318 319 318 317 315 317 317 317 317 317 318 317 318 318 317 318 319 318 318 317 315 314 314 315 315 315 316 316 315 314 313 311
318 318 317 317 317 317 317 319 319 318 318 317 317 317 317 317 317 317 318 318 318 318 318 319 319 317 317 315 314 312 312 312 312 314 315 314 312 310
319 319 319 318 319 319 319 318 319 318 318 318 318 318 318 317 317 318 318 317 317 318 318 318 318 318 318 317 317 315 314 312 312 311 313 310 307 304
320 320 319 319 319 319 318 318 318 317 317 317 318 317 317 317 317 318 318 318 318 318 318 317 318 319 318 318 317 317 315 312 311 311 309 305 302 300
320 320 320 319 319 318 318 318 317 317 317 317 317 317 317 317 318 318 318 318 318 318 318 319 319 318 318 317 316 315 312 308 307 303 301 300 299 298
318 318 318 318 318 318 317 317 317 316 317 317 317 317 317 317 317 316 316 317 316 317 317 318 317 318 317 316 313 311 307 306 302 300 299 296 292 289
317 317 317 317 317 317 317 316 316 316 316 317 316 317 317 316 315 316 314 315 316 316 315 315 315 314 313 311 309 306 303 300 298 293 290 289 288 288
316 316 315 315 315 315 315 315 315 315 315 316 316 316 316 316 316 315 316 314 310 314 312 308 309 306 305 304 303 300 298 294 292 292 292 292 291 290
317 317 316 315 315 314 315 315 315 316 316 315 315 315 315 316 316 315 315 315 313 310 306 299 297 298 298 298 298 296 292 292 292 291 290 289 289 289
317 316 316 316 315 315 314 313 314 315 315 315 313 314 315 315 316 317 315 311 300 296 297 292 292 291 292 292 291 292 291 290 289 288 288 287 287 286
318 318 317 317 317 316 315 313 313 311 312 310 309 306 307 309 310 310 306 298 291 289 291 290 289 288 289 289 289 289 288 287 286 286 285 285 284 283
318 318 319 318 318 317 316 313 311 304 302 294 293 291 291 294 295 298 299 297 288 285 285 285 285 286 284 284 285 284 283 282 282 282 282 282 281 281
317 316 312 315 318 317 315 314 311 295 288 287 286 285 285 286 287 288 288 289 284 280 281 283 282 283 283 282 281 281 281 281 281 281 280 279 279 279
293 292 291 294 293 294 296 299 294 287 285 283 282 281 281 281 281 282 283 282 281 280 281 283 280 280 280 279 280 280 280 280 279 278 278 278 277 277
285 284 283 283 284 285 284 283 283 282 282 281 280 279 279 279 280 279 279 279 279 278 278 278 278 278 278 278 279 278 278 278 277 277 276 276 276 276
283 282 282 282 282 283 284 284 283 283 281 279 278 278 278 278 278 278 278 277 277 277 275 275 275 275 276 276 276 276 275 276 275 275 273 273 273 273
281 281 280 279 279 278 278 278 278 278 278 277 277 276 275 275 275 275 275 275 275 274 273 272 273 273 273 274 274 273 272 272 272 271 271 272 272 272
279 278 278 277 277 276 276 276 276 276 275 275 275 274 274 273 273 273 273 273 272 272 272 271 271 271 271 271 272 271 271 270 271 271 271 271 271 271
276 276 276 275 275 275 274 274 274 274 274 274 273 273 272 272 271 270 270 271 271 271 270 270 270 270 270 269 269 270 269 269 270 269 269 270 270 270
274 274 274 273 273 273 273 273 273 272 271 271 271 270 270 270 269 269 269 269 270 269 269 269 269 269 269 266 268 268 269 269 269 269 269 270 270 270
272 272 272 272 272 272 272 271 270 270 270 269 269 269 269 269 268 268 268 268 268 268 268 268 267 267 267 268 268 267 268 268 269 269 269 269 270 270
270 270 270 271 270 270 270 270 269 268 268 268 268 268 268 268 267 267 267 267 266 266 267 267 267 267 267 267 267 267 267 268 270 270 270 270 270 271
269 269 269 269 269 269 269 268 267 267 267 266 266 266 267 266 266 266 266 266 266 266 266 265 266 266 266 266 266 266 266 267 267 268 269 270 271 272

GFSNE_925_thetae_090.txt.gz
Theta_e
318 317 317 317 317 317 317 317 317 317 316 317 317 318 317 317 317 317 317 317 317 317 317 318 318 318 318 318 317 316 316 315 316 316 317 317 316 317
319 318 319 318 316 316 317 317 317 317 317 317 317 318 317 317 317 317 317 317 317 317 317 317 317 317 317 318 318 318 317 316 314 314 314 315 315 315
319 319 319 317 316 316 316 316 317 317 317 317 317 318 318 317 317 317 317 317 317 317 317 317 317 317 316 318 318 318 318 317 316 316 313 312 313 312
320 320 319 318 317 317 317 317 317 317 317 317 317 317 317 316 316 316 317 317 317 317 317 317 317 317 317 318 317 317 318 317 317 317 315 312 312 312
319 319 319 319 318 318 318 318 318 318 317 317 317 317 317 316 317 317 317 316 317 317 317 317 317 317 317 318 318 318 318 317 317 315 315 312 310 307
319 319 319 319 319 318 318 318 318 317 317 317 316 316 316 316 316 316 316 316 316 316 316 317 317 317 316 317 318 317 316 316 317 314 310 308 305 302
318 318 318 318 319 318 318 318 317 316 316 316 316 316 316 316 315 316 314 315 315 315 315 315 315 315 315 316 315 316 314 311 311 307 305 302 299 298
316 316 316 317 317 317 317 317 317 316 315 316 315 315 316 316 316 315 315 315 314 315 314 313 313 312 313 315 315 312 310 305 303 300 298 295 290 290
317 317 316 316 316 316 316 316 316 316 316 316 315 315 315 315 315 315 315 315 315 315 314 309 308 306 305 306 304 302 302 300 295 292 291 291 290 290
318 317 317 317 317 316 315 314 314 315 316 315 313 313 314 315 314 314 314 314 312 308 306 300 294 293 292 293 292 292 293 291 291 290 289 289 289 289
318 318 317 317 317 317 316 314 313 313 312 313 309 308 307 309 312 310 307 306 295 291 292 292 289 288 287 287 287 287 287 286 285 284 284 284 284 285
316 316 316 313 314 315 315 314 313 312 308 299 295 290 291 292 294 294 297 303 297 287 285 286 286 287 284 282 283 283 283 282 283 282 282 282 283 283
297 293 292 293 300 305 307 306 305 301 291 289 284 282 283 284 285 286 290 291 286 281 283 285 283 284 282 281 280 281 281 282 282 281 281 280 279 279
286 285 285 285 289 293 292 290 292 290 286 283 282 281 280 280 280 281 281 281 280 279 281 284 280 282 281 280 281 279 279 279 279 278 278 278 278 277
282 281 281 281 281 281 281 283 283 282 281 279 278 278 277 278 278 278 277 278 277 277 278 279 278 279 279 279 279 278 278 277 277 276 275 275 274 274
281 280 280 280 279 279 279 278 278 278 277 277 276 276 278 278 277 278 277 276 275 274 274 275 276 276 276 276 276 276 275 275 274 273 272 272 272 272
281 280 278 277 277 276 276 276 277 277 276 276 275 275 274 274 274 275 275 274 273 273 272 272 273 274 273 274 274 273 272 272 271 271 272 272 272 272
278 276 275 275 275 275 274 274 275 275 274 274 274 273 273 272 272 272 272 272 272 271 271 271 271 271 272 272 272 271 271 270 270 270 270 270 270 270
274 274 273 273 273 273 272 272 272 272 273 272 272 272 271 271 271 271 271 271 271 270 270 270 270 269 270 270 269 270 269 269 269 269 269 270 270 270
272 272 271 271 271 271 271 271 271 271 270 270 270 270 269 269 269 269 269 269 270 269 269 268 268 268 268 268 268 268 268 268 269 269 269 269 270 270
270 270 271 271 270 270 270 270 269 269 269 269 268 268 268 268 268 268 267 267 268 268 268 267 267 267 267 267 267 267 268 269 268 269 269 269 270 271
269 269 269 269 269 269 269 268 268 268 267 267 267 267 267 267 267 267 266 266 266 266 266 266 266 266 267 267 267 267 267 269 270 269 269 269 270 271
268 268 268 268 268 267 267 267 267 266 266 266 266 266 266 266 266 266 266 266 265 265 265 265 265 266 266 266 266 266 266 267 267 268 273 273 271 272

GFSNE_925_thetae_093.txt.gz
Theta_e
317 317 317 317 318 318 318 317 318 321 320 318 317 316 316 317 317 316 316 316 316 317 317 317 317 317 317 317 318 317 317 317 317 316 315 316 317 318
318 316 314 315 317 317 317 317 317 318 321 317 316 316 315 316 316 317 317 316 317 317 317 317 317 317 317 317 317 317 317 317 318 317 317 316 315 315
317 317 317 317 317 316 317 317 316 317 317 317 317 317 316 317 317 318 317 317 317 317 317 317 317 317 317 317 317 317 317 316 317 318 317 317 316 315
317 319 319 318 318 318 318 317 317 317 316 316 317 317 318 317 317 317 317 317 317 317 317 316 316 317 317 316 317 317 317 317 317 317 317 317 317 316
320 320 320 321 320 320 319 318 318 317 317 317 318 318 318 318 318 317 317 316 317 317 316 316 316 317 317 317 317 317 317 317 317 317 317 318 317 316
319 320 320 320 320 321 320 320 320 320 319 318 318 318 319 319 319 318 318 318 317 317 316 316 316 316 316 316 316 316 316 316 316 316 317 317 316 316
319 318 319 319 319 319 320 320 320 320 319 319 319 319 319 319 319 318 318 317 317 318 318 317 316 315 315 315 315 315 315 315 315 315 315 315 315 314
319 319 319 318 318 318 318 319 319 320 319 319 318 317 317 317 317 317 317 317 317 316 316 316 316 315 315 313 312 312 313 312 311 310 309 306 304 304
318 318 318 318 318 317 317 317 318 318 318 318 317 316 316 316 316 316 316 316 316 316 316 315 314 311 305 305 307 305 304 302 302 301 299 297 293 292
318 318 317 317 317 316 316 316 315 316 316 316 314 314 315 314 315 315 315 315 315 312 311 310 298 290 290 292 292 293 293 292 291 290 290 289 289 289
315 315 312 313 313 316 315 315 314 314 312 312 306 302 299 299 302 307 304 305 309 296 293 292 289 285 284 284 283 285 286 286 286 286 287 287 288 288
302 297 294 296 298 303 307 307 308 308 305 298 295 291 292 292 293 294 293 296 296 291 288 288 287 286 283 281 282 284 284 284 284 284 285 284 284 284
287 285 285 286 291 296 299 300 298 293 290 290 287 285 284 283 282 284 285 287 285 281 282 285 284 284 283 281 280 280 281 281 281 281 281 280 281 281
282 282 282 281 281 283 284 285 286 286 283 281 279 279 279 278 279 280 280 280 279 279 281 283 281 282 282 282 282 280 279 279 279 278 278 278 279 279
281 280 280 280 281 281 282 283 283 281 279 278 278 278 278 278 279 278 278 278 279 279 279 280 279 280 281 281 280 279 280 277 276 276 276 275 275 275
280 280 279 279 278 279 279 279 279 279 279 279 279 278 278 277 278 278 278 277 276 275 275 275 276 277 277 277 278 276 275 276 274 274 274 274 274 274
280 280 280 280 279 279 278 277 278 278 278 278 278 278 277 277 276 276 276 276 275 274 273 273 274 274 275 276 275 274 273 273 273 273 273 273 273 274
279 279 278 278 277 277 277 277 276 276 276 276 276 276 275 275 275 274 274 274 274 273 273 272 273 274 273 273 273 272 272 272 272 272 272 272 273 274
277 276 276 276 275 275 275 274 274 273 273 273 274 274 273 273 274 273 273 273 272 272 271 271 272 272 275 274 272 270 271 271 271 272 272 273 273 274
274 274 274 274 274 273 272 272 272 272 271 271 271 271 272 272 272 272 272 272 272 271 271 270 270 270 271 272 271 271 269 270 271 272 273 273 273 273
272 272 272 272 271 271 270 270 270 269 269 270 270 270 270 270 270 270 269 269 270 270 270 270 269 268 269 270 272 272 271 270 269 270 271 272 274 275
269 269 269 269 269 269 268 269 268 268 268 268 268 268 268 268 268 268 269 269 269 269 269 269 268 269 270 270 271 271 271 271 271 271 271 271 272 276
267 267 266 266 267 266 266 266 266 266 266 266 267 267 267 267 267 267 268 268 268 268 268 268 269 269 269 269 269 270 270 271 272 273 274 273 273 273

GFSNE_925_thetae_096.txt.gz
Theta_e
319 320 321 321 321 321 321 318 317 323 320 319 319 319 320 320 319 316 317 317 316 316 317 317 316 315 316 316 316 317 317 317 317 316 316 316 316 318
316 318 320 319 319 319 319 320 320 320 323 319 319 319 320 318 318 316 318 315 316 316 317 316 316 317 316 316 317 317 317 317 317 317 317 317 316 316
315 317 318 318 318 319 320 319 318 318 318 318 318 318 318 319 319 318 317 316 316 315 316 317 317 317 317 317 317 317 317 317 317 317 317 317 317 316
317 316 315 317 318 316 316 317 317 317 317 318 317 318 319 319 318 318 318 319 319 318 317 316 317 317 316 317 317 316 316 316 316 316 316 316 317 316
318 315 315 317 318 318 317 317 317 317 318 320 321 320 320 319 319 320 320 320 320 318 317 316 316 316 316 316 316 316 316 316 316 317 316 316 316 316
318 316 317 318 318 320 320 321 322 322 322 322 321 321 321 321 321 321 322 321 321 320 319 318 317 317 317 316 316 315 316 315 316 316 316 316 316 316
320 320 320 321 321 322 322 322 322 323 323 323 322 322 322 322 322 322 322 322 322 321 320 320 320 320 319 318 317 316 316 315 315 315 315 314 314 313
321 321 321 320 320 320 320 319 320 321 322 322 322 321 321 321 321 322 321 320 319 319 319 319 319 320 318 318 318 317 316 315 313 312 310 310 311 311
321 321 321 321 321 321 320 319 319 319 319 319 320 321 320 320 319 319 319 319 319 318 318 318 315 307 296 295 296 305 307 307 306 304 302 301 300 299
314 314 315 315 315 316 317 317 317 318 317 315 314 312 312 312 312 312 310 308 310 310 309 301 296 289 289 289 289 290 292 293 291 290 290 290 290 290
300 299 301 301 301 305 308 309 312 312 306 308 305 298 295 296 298 301 302 301 304 303 298 297 292 288 285 285 285 285 286 287 288 287 288 288 288 288
290 290 291 292 296 299 301 302 302 297 296 293 292 291 290 289 291 292 291 291 296 293 287 289 288 286 283 281 282 282 282 282 283 283 284 284 285 285
285 284 283 285 288 291 292 291 288 287 286 286 284 283 283 283 283 284 284 285 284 281 282 285 285 285 284 283 282 281 282 282 282 282 281 282 283 283
284 283 282 282 282 283 284 284 286 285 284 282 281 280 280 280 280 280 280 279 279 280 281 283 284 286 286 285 284 282 281 280 280 279 279 279 279 279
282 281 281 282 283 282 282 283 283 283 283 282 282 281 281 281 282 282 281 280 279 278 279 279 282 284 285 285 284 282 282 280 278 278 277 277 277 277
283 282 282 282 281 281 282 281 281 281 282 282 282 282 281 281 281 281 281 282 281 279 277 277 279 281 281 281 281 280 278 279 277 276 276 276 276 277
283 283 283 282 282 282 281 280 280 281 281 281 281 281 281 281 280 280 280 279 279 279 277 277 276 276 277 278 278 277 276 276 276 276 275 276 277 277
282 282 281 281 281 280 280 280 279 278 279 279 279 279 278 278 278 278 278 278 278 277 277 276 277 278 277 276 274 275 276 276 275 275 275 276 277 278
281 280 280 279 279 279 278 278 277 276 276 276 277 277 277 277 277 277 277 277 276 276 275 275 275 277 280 280 276 273 274 274 275 276 276 277 277 278
278 278 278 277 277 276 276 275 275 275 275 275 275 275 275 276 275 275 275 275 275 275 275 274 273 273 275 276 275 275 273 273 274 275 276 276 277 277
275 275 275 275 274 274 274 273 273 272 273 273 273 273 273 274 273 274 273 272 273 274 274 273 272 270 272 274 276 276 275 273 272 273 274 275 277 279
273 273 272 272 272 272 272 272 272 272 272 272 272 272 272 272 272 272 272 273 272 273 273 272 272 272 273 273 274 274 275 274 275 275 274 274 275 279
271 271 271 270 270 270 270 270 270 270 270 270 270 271 270 271 271 271 271 271 271 272 272 272 272 273 273 273 273 275 275 275 276 277 278 276 275 276

GFSNE_925_thetae_099.txt.gz
Theta_e
322 322 319 321 321 322 322 321 321 323 321 321 322 322 322 322 322 321 321 320 317 316 316 316 316 316 317 317 317 316 316 316 316 316 316 316 316 316
320 321 321 320 321 321 321 322 322 321 323 318 320 320 321 321 321 321 320 320 319 316 316 316 316 316 316 316 316 316 316 316 316 316 317 317 317 317
317 319 319 319 321 321 321 320 320 320 321 320 319 320 319 320 319 320 319 319 320 319 318 316 315 315 315 316 316 316 316 317 317 317 316 317 316 317
316 316 315 316 318 320 321 321 321 321 320 321 319 317 317 315 316 317 317 319 320 320 319 319 318 318 316 315 315 316 317 317 317 316 316 316 316 316
316 317 318 318 317 318 318 318 319 319 319 318 318 317 318 319 321 321 322 321 321 320 320 320 320 319 319 319 318 317 316 317 317 316 316 316 316 315
319 320 320 319 317 317 316 317 319 319 318 318 319 321 321 322 323 323 323 323 323 323 322 322 321 320 319 318 319 317 317 316 316 316 316 316 315 315
321 321 320 319 317 316 317 317 318 320 322 321 322 323 324 324 324 323 323 323 323 323 323 323 323 322 316 317 315 316 317 317 317 317 317 316 315 313
322 322 321 320 320 319 320 320 320 322 322 322 322 323 323 323 323 324 323 323 322 322 322 321 320 319 315 310 310 313 309 310 315 317 315 314 310 307
318 320 319 318 320 319 320 320 320 320 320 318 317 318 318 316 315 315 318 318 318 314 314 313 311 306 296 294 292 295 303 299 298 300 302 301 300 297
309 309 310 311 312 314 316 316 313 313 313 311 307 303 302 303 303 304 303 303 305 304 303 303 300 296 291 290 286 286 288 290 291 291 291 291 291 291
295 295 296 297 298 301 305 306 303 298 294 296 293 291 292 294 297 299 297 295 299 296 293 293 290 287 286 285 284 284 285 286 287 287 287 287 287 287
288 288 287 288 291 296 298 298 294 288 290 290 289 289 289 289 289 289 288 289 290 292 285 286 287 287 284 283 283 284 284 283 284 284 285 285 285 285
285 284 284 284 286 288 290 289 286 286 285 285 284 284 283 283 283 283 283 283 285 284 283 285 286 286 286 285 284 283 283 282 283 282 281 282 283 283
285 284 283 283 283 284 284 284 285 284 284 283 283 283 283 283 282 282 282 281 281 281 283 285 285 287 288 287 287 284 283 282 281 281 281 280 280 279
283 283 283 283 283 283 284 284 285 285 285 285 284 283 283 282 282 283 283 283 282 280 280 281 283 284 285 286 285 283 283 283 280 280 279 279 279 279
283 283 283 283 282 282 282 282 282 283 283 283 283 283 283 282 282 282 283 283 283 281 279 278 280 282 283 282 283 282 280 279 279 279 278 278 279 279
284 284 284 284 283 283 282 281 281 282 282 282 282 282 282 282 281 281 281 282 281 280 280 279 279 278 277 279 280 279 279 279 278 278 278 278 279 279
283 283 282 282 282 282 281 281 280 280 280 281 281 280 280 280 280 280 280 280 279 279 278 278 279 280 280 277 276 276 277 277 277 277 278 279 279 279
282 281 281 281 281 280 280 279 279 278 278 278 279 279 279 279 279 279 279 279 278 278 277 277 276 277 281 281 279 277 276 276 276 277 277 278 278 278
280 279 279 279 278 278 277 277 276 277 277 277 277 277 277 277 277 277 275 276 277 277 277 276 275 274 275 276 276 277 276 275 275 275 276 276 277 279
277 277 277 277 276 276 276 276 275 275 275 275 275 275 275 276 275 275 276 275 275 276 276 275 274 273 274 275 277 277 276 276 276 276 276 276 278 279
275 275 275 274 274 274 274 274 275 274 274 274 274 274 274 274 275 274 274 274 274 274 275 275 275 275 275 275 276 276 277 277 277 277 278 277 277 278
273 273 272 272 272 272 273 272 272 272 271 272 272 272 273 273 273 273 274 274 273 273 274 274 275 275 276 276 275 276 277 277 277 277 279 279 278 279

GFSNE_925_thetae_102.txt.gz
Theta_e
324 324 323 322 319 317 317 323 321 320 320 322 323 322 322 321 319 319 318 317 317 317 317 317 317 317 317 317 317 317 316 317 317 317 317 316 316 316
324 323 323 322 320 317 317 322 322 322 320 320 321 322 322 322 321 322 322 321 321 321 319 318 317 316 316 316 316 316 316 317 316 316 316 316 316 316
322 323 320 321 318 319 320 321 321 321 320 320 320 320 320 321 321 321 321 321 321 320 318 318 318 318 317 316 315 315 316 316 316 316 316 316 316 316
321 321 321 321 321 321 321 320 319 321 321 320 320 321 320 319 318 317 316 317 319 320 320 319 319 319 319 318 318 317 316 315 315 315 315 315 316 316
320 318 318 319 318 318 319 320 321 321 321 321 319 319 319 319 318 317 318 318 318 319 319 320 320 320 320 319 319 319 318 318 318 318 318 317 317 316
317 317 317 316 317 316 317 317 319 319 320 320 319 319 318 318 318 319 320 320 321 322 322 322 322 321 319 319 318 316 316 318 317 317 317 317 316 315
318 318 318 318 320 319 318 319 317 316 316 318 318 318 319 320 320 322 323 323 323 323 323 323 321 318 313 310 312 311 315 315 312 312 310 310 312 309
321 321 321 320 320 319 318 317 316 317 317 317 319 321 321 322 319 319 319 319 318 320 317 317 317 315 305 300 297 302 302 299 300 300 302 302 300 301
319 320 319 317 319 319 319 317 317 315 317 316 314 315 310 311 310 311 309 310 310 309 307 307 306 303 295 291 288 291 292 293 293 293 293 293 293 293
307 307 307 306 308 311 311 307 306 304 304 304 302 297 296 299 300 301 300 300 300 299 299 299 295 291 288 288 287 288 289 288 289 289 289 289 289 289
294 295 296 297 297 302 302 300 293 291 291 292 292 292 293 294 297 298 296 295 297 289 290 291 289 288 286 285 285 285 285 285 285 286 287 286 286 286
289 288 289 291 294 297 298 296 290 287 289 288 287 287 288 288 289 290 289 289 289 288 285 286 287 287 285 284 284 284 284 284 283 282 282 284 284 284
285 285 285 285 288 290 291 289 286 285 285 285 284 284 284 284 284 284 285 286 285 283 284 286 286 287 287 285 284 283 282 282 282 281 281 281 280 280
284 284 284 284 284 285 285 285 285 285 285 284 284 283 283 283 283 283 283 282 282 282 284 285 285 286 287 287 286 284 283 282 280 280 279 279 279 279
283 283 283 283 283 284 284 284 284 284 284 284 283 283 282 282 283 283 283 284 281 280 280 282 283 284 284 284 284 283 281 281 279 279 278 278 279 279
284 284 283 283 282 282 282 282 282 283 283 283 283 283 282 282 281 282 282 283 282 280 279 279 279 281 281 281 280 279 279 279 278 278 278 278 279 279
283 283 283 283 282 282 281 280 280 281 281 281 281 281 280 281 280 280 280 280 279 279 278 278 279 279 279 278 278 277 277 277 276 276 278 278 278 279
282 282 282 281 281 281 280 279 278 279 279 279 279 279 279 279 279 279 280 279 279 278 277 276 277 278 279 277 277 277 276 276 275 276 276 276 277 277
281 280 280 279 278 278 278 277 277 277 277 277 277 277 278 278 277 276 276 277 278 277 277 276 274 275 276 274 276 277 277 276 276 275 275 276 276 277
278 278 278 278 277 277 276 276 275 276 276 276 276 276 276 276 276 276 275 275 276 276 276 275 274 274 274 273 275 276 276 276 276 276 276 276 277 278
276 276 275 276 275 275 275 275 275 275 275 274 274 274 275 275 275 275 274 275 275 275 275 275 275 275 275 275 276 276 276 277 277 277 277 277 277 277
274 274 273 273 273 274 273 273 273 273 273 273 273 273 273 274 274 274 274 274 273 274 274 274 275 275 276 276 276 276 276 277 276 277 277 279 278 276
272 272 271 271 271 271 271 271 271 270 270 270 271 272 272 273 273 273 273 273 273 272 271 272 274 275 275 275 275 275 276 276 276 276 276 277 278 279

GFSNE_925_thetae_108.txt.gz
Theta_e
325 324 322 322 321 321 321 321 320 319 320 320 319 320 321 320 319 320 319 319 319 318 318 318 318 319 319 318 317 317 317 316 316 316 316 316 316 316
325 324 323 322 322 323 322 321 320 319 318 320 320 320 320 320 319 320 320 320 319 319 318 318 318 318 318 317 317 317 317 316 317 317 317 317 317 317
324 323 323 322 321 322 321 318 320 321 320 320 320 321 321 321 321 321 321 321 320 320 320 320 320 320 316 319 319 319 319 319 319 318 318 317 317 316
324 323 323 322 321 321 320 319 319 318 317 319 320 320 320 320 320 320 320 320 320 320 319 320 320 319 319 320 320 320 320 319 319 318 317 317 315 315
323 323 323 323 322 322 321 322 321 319 319 319 319 319 319 319 318 319 319 320 320 320 319 317 316 317 317 317 317 317 317 317 315 315 313 312 311 310
323 323 322 323 322 322 322 321 320 319 319 320 319 319 319 319 319 319 318 318 318 316 317 317 317 315 313 308 312 315 310 311 310 306 305 304 305 304
322 323 323 323 323 323 322 321 320 320 319 319 318 318 318 317 317 318 318 318 317 318 314 310 309 308 306 304 300 297 297 300 300 300 300 298 298 297
320 321 321 322 321 321 320 319 318 318 317 316 316 316 317 317 317 317 317 319 314 312 309 303 301 298 295 294 292 293 293 292 292 292 291 292 291 291
317 318 317 317 317 317 317 317 315 316 316 316 315 314 313 313 313 312 310 310 309 306 304 293 292 291 289 289 289 289 289 289 289 289 289 288 288 288
309 309 310 309 308 310 310 309 307 307 310 311 311 311 309 309 308 306 304 302 299 298 299 292 289 287 287 287 287 287 287 287 286 286 286 286 286 285
297 298 300 301 302 302 304 298 294 292 291 295 295 294 296 299 301 301 299 296 292 290 292 291 287 285 284 285 285 285 285 284 283 282 282 282 282 282
289 290 294 298 298 298 299 295 288 287 289 289 288 290 290 291 293 294 294 294 290 287 287 288 287 286 284 284 283 283 281 280 280 279 279 279 280 280
286 286 287 291 292 293 293 292 288 287 287 287 286 286 286 285 286 288 289 291 289 285 286 287 287 287 286 284 283 283 280 280 279 278 278 278 279 280
284 285 285 286 286 286 286 285 285 286 286 285 284 284 283 281 280 281 281 283 284 284 285 286 286 287 287 285 284 281 282 279 278 278 277 278 279 279
284 284 285 285 285 285 284 284 285 284 283 282 282 281 283 283 282 280 279 279 279 280 282 283 283 284 285 284 280 278 279 278 277 276 276 277 278 278
282 282 283 283 283 283 283 283 283 283 282 281 281 280 282 281 281 282 279 278 278 277 279 279 280 281 279 279 278 277 276 276 276 276 276 277 277 277
281 281 280 280 280 280 280 280 281 280 280 280 280 280 280 279 279 278 278 277 276 275 275 278 278 278 278 278 277 277 276 276 276 276 276 277 278 278
280 278 278 278 277 277 277 278 278 278 278 278 278 278 278 278 277 277 277 276 275 275 274 275 277 277 278 277 276 276 276 276 276 276 277 276 277 278
277 276 276 276 276 276 276 276 276 276 277 277 277 276 276 275 276 276 276 275 275 274 274 274 274 275 274 273 275 275 275 276 276 276 276 276 276 278
276 275 275 275 275 274 275 274 274 274 275 274 274 275 275 274 274 274 274 274 274 274 274 274 274 274 274 272 274 275 275 276 276 275 276 275 276 278
274 274 274 274 273 273 273 273 273 273 273 273 273 273 273 273 273 273 273 273 273 272 272 272 273 274 275 275 275 274 274 275 275 274 274 275 276 277
272 272 272 272 272 272 272 272 272 272 271 272 272 272 273 273 272 272 272 272 271 271 270 271 272 274 274 273 273 274 274 273 273 273 274 275 275 276
270 270 270 270 270 270 270 270 269 269 269 270 270 270 271 271 271 271 270 270 270 270 269 270 270 272 272 272 272 273 272 271 272 272 274 275 275 277

GFSNE_925_thetae_111.txt.gz
Theta_e
326 326 325 323 321 320 320 320 320 321 320 319 320 321 321 321 321 321 320 319 319 319 320 319 319 319 318 318 318 318 318 317 317 317 317 317 317 317
325 324 323 321 321 320 320 320 319 319 319 319 319 319 320 320 321 320 320 319 319 320 319 319 318 318 318 318 318 318 318 318 318 318 318 317 317 317
324 324 324 323 321 320 320 320 319 319 318 318 319 319 319 319 320 320 320 319 319 320 319 319 319 318 319 319 319 319 319 318 319 319 318 318 318 318
324 324 323 322 321 320 320 321 320 320 320 319 319 319 320 320 321 320 320 320 321 320 320 319 320 320 320 320 319 319 319 319 319 318 318 318 318 318
324 324 323 322 321 320 320 320 320 319 318 317 317 317 317 318 320 319 320 319 320 320 320 320 319 319 318 317 317 316 316 316 316 316 314 315 313 311
324 324 323 322 321 320 320 320 320 319 319 318 318 318 318 319 319 319 318 318 317 317 316 315 314 314 314 313 311 310 309 310 310 306 305 304 303 303
323 323 322 322 322 322 321 320 320 320 319 319 318 318 317 317 318 318 317 318 315 315 311 308 306 303 302 301 300 300 300 299 299 298 298 298 299 297
322 322 322 322 322 322 322 322 320 319 318 318 318 318 316 318 319 318 318 316 311 310 307 300 298 297 295 295 294 295 295 295 294 293 293 293 292 292
320 320 320 321 321 321 319 319 319 319 318 318 317 317 317 317 317 316 316 316 314 306 303 291 293 292 292 290 290 290 289 289 289 289 289 289 288 288
311 312 313 315 315 315 312 310 308 308 310 313 314 313 312 311 311 310 311 310 303 299 300 289 288 287 287 288 288 287 286 286 285 286 286 285 284 284
297 300 302 302 304 307 306 301 295 292 293 297 299 299 300 303 302 302 302 300 292 291 293 290 286 285 285 285 285 284 284 283 282 281 281 281 282 281
292 293 295 296 295 296 300 295 290 288 291 291 291 292 293 295 296 296 295 295 290 289 289 290 286 287 284 284 282 281 281 280 279 279 279 279 280 280
286 287 289 291 291 292 292 291 288 289 289 289 288 288 288 289 289 291 293 293 291 286 288 288 287 286 285 283 283 281 280 280 279 279 278 278 278 279
285 285 285 288 289 289 287 286 287 287 287 286 284 282 281 281 282 284 285 286 286 286 286 286 287 287 285 283 283 282 281 279 278 277 276 277 278 279
282 283 285 285 286 285 284 286 287 285 283 283 282 282 279 279 279 280 280 281 282 283 284 284 286 286 286 283 279 278 278 278 277 276 277 277 277 277
284 283 283 283 283 283 283 283 282 282 281 280 280 280 282 282 279 279 278 278 278 278 279 280 281 283 281 279 278 276 276 276 276 276 277 277 278 277
282 282 281 280 279 279 280 280 280 280 279 279 280 279 279 279 278 278 277 277 275 275 277 278 278 278 278 278 277 276 276 276 276 276 276 276 277 278
280 278 277 277 277 277 277 277 278 278 278 279 278 278 277 277 277 276 276 276 275 274 274 275 277 278 277 276 276 275 275 276 276 276 276 275 275 276
277 276 275 275 275 275 275 275 275 275 276 277 276 276 276 276 276 276 275 275 274 274 274 274 274 274 274 274 275 275 275 276 276 276 275 275 274 275
275 274 274 274 274 274 274 274 274 275 275 274 274 274 275 274 274 274 274 274 274 274 273 274 274 274 274 273 274 275 275 275 274 274 274 274 274 275
273 273 273 273 273 273 272 272 272 272 273 273 273 273 273 273 273 273 273 272 272 272 271 272 272 274 275 274 274 274 274 274 273 273 273 274 274 275
271 271 271 271 271 271 271 271 271 271 271 271 272 272 272 272 272 272 272 271 270 270 270 270 272 273 273 272 272 273 272 272 272 272 273 274 274 274
270 270 270 270 269 269 269 269 269 269 269 270 270 270 271 271 270 270 270 270 269 269 269 269 270 271 271 271 271 272 270 270 270 270 272 272 273 274

GFSNE_925_thetae_114.txt.gz
Theta_e
326 325 326 326 325 324 322 322 322 322 321 319 320 320 320 320 320 319 320 320 320 319 318 318 318 319 319 318 318 317 317 317 317 316 317 317 317 317
325 325 325 325 325 323 322 321 322 321 321 320 320 320 321 321 321 321 321 321 320 320 319 318 319 319 319 319 318 318 318 317 317 317 318 318 318 317
324 324 323 323 324 322 320 320 320 320 319 318 320 317 319 319 320 321 321 320 320 320 319 319 319 319 319 318 318 318 318 318 318 318 318 318 318 318
321 322 323 323 322 320 320 320 319 319 318 317 318 318 318 318 319 319 319 319 319 318 319 318 318 318 318 318 319 319 319 319 319 318 317 316 315 315
321 323 323 323 322 321 320 319 319 318 318 319 319 319 319 319 319 320 320 320 319 319 320 319 319 319 319 319 319 318 317 316 316 315 313 315 317 310
322 322 323 323 322 321 320 320 319 319 319 319 318 318 318 317 318 318 319 319 318 317 318 317 317 314 313 312 311 311 311 312 312 310 310 308 306 305
321 321 323 323 323 321 320 320 319 319 319 318 318 318 317 318 318 318 318 317 313 313 310 306 306 305 303 302 303 302 302 302 301 303 300 298 297 297
321 322 322 323 322 321 320 320 319 319 319 319 319 318 318 318 317 318 317 313 307 307 304 299 299 300 297 296 293 294 296 294 293 292 292 292 293 292
320 321 321 322 321 321 320 320 320 320 320 319 319 318 318 317 318 317 317 316 314 307 305 291 293 293 291 290 290 291 290 290 289 290 290 289 289 289
313 315 316 318 318 318 319 315 313 312 313 316 317 317 317 316 317 317 317 313 303 299 301 288 289 288 288 288 288 288 288 288 288 287 287 287 285 284
298 302 304 306 306 309 310 305 301 299 295 299 303 307 309 310 307 310 308 304 292 293 294 290 287 286 286 286 285 285 284 283 284 281 281 281 280 280
289 291 293 295 296 298 301 298 292 289 292 292 293 293 297 297 299 301 301 299 291 289 290 289 285 286 284 283 283 283 282 280 279 279 279 279 280 280
286 286 286 289 291 292 293 292 288 288 288 289 288 289 289 291 293 294 295 297 293 288 289 291 287 286 284 283 281 280 280 279 279 279 278 278 278 279
283 283 284 284 285 285 287 286 287 287 286 284 283 281 281 283 283 286 289 289 290 288 287 289 287 287 284 283 281 279 279 278 278 277 277 277 277 278
282 283 285 285 284 284 285 286 286 285 284 281 280 279 279 279 280 281 282 283 283 283 284 286 288 286 286 283 280 279 278 277 277 277 277 277 278 278
283 283 282 281 282 283 282 282 281 281 280 279 279 279 279 279 279 278 278 279 279 278 280 281 284 286 282 280 279 277 276 276 276 276 277 277 277 278
282 282 281 280 279 279 279 280 280 280 279 279 279 279 278 277 277 277 277 277 277 277 278 278 278 278 278 278 277 276 276 276 276 276 276 276 276 276
280 277 276 276 276 276 277 277 278 278 278 278 278 278 278 277 276 276 276 275 275 275 275 277 278 278 277 276 276 275 276 276 276 276 275 275 275 276
276 275 274 274 274 274 274 275 274 275 276 276 277 276 276 276 276 275 275 275 275 274 274 275 275 275 276 276 275 275 276 275 275 275 274 274 274 275
273 273 273 273 273 273 273 273 273 274 274 274 274 274 275 274 274 274 274 274 274 273 273 273 274 274 274 274 274 274 274 273 273 273 273 273 274 275
272 272 272 272 272 272 272 272 273 273 273 273 273 273 273 273 272 272 272 272 272 272 271 271 272 274 274 274 274 273 273 273 272 272 272 274 274 274
270 270 270 270 270 270 271 271 271 271 271 272 272 272 272 272 272 271 271 270 270 270 270 270 272 273 273 272 272 272 271 271 272 271 272 273 273 274
269 269 269 269 269 269 269 269 269 269 269 270 270 271 271 271 270 270 270 269 269 269 269 270 270 271 271 270 271 270 269 269 269 270 270 270 271 272

GFSNE_925_thetae_117.txt.gz
Theta_e
329 328 328 327 326 326 326 324 324 324 322 322 321 321 322 321 320 320 318 318 318 318 319 319 319 318 317 317 317 317 317 316 316 317 317 317 317 317
328 328 327 326 325 325 325 324 324 324 323 322 320 321 321 320 320 320 319 318 319 318 318 319 319 318 318 318 318 318 318 317 317 317 317 317 317 317
327 326 326 325 325 324 324 324 323 323 322 321 320 320 320 320 320 319 319 319 320 320 320 320 320 319 318 318 318 319 318 318 317 317 317 317 318 318
326 325 325 324 323 323 323 322 322 321 321 318 319 319 320 320 319 320 320 320 319 320 320 320 319 319 318 318 319 318 318 318 318 318 318 318 318 317
325 324 322 322 323 323 322 321 321 320 320 318 318 319 318 317 317 318 319 319 317 318 318 318 319 318 318 318 318 318 318 318 318 318 317 315 314 312
323 322 322 322 323 322 321 320 320 319 319 319 318 318 318 317 316 318 319 315 314 316 317 317 319 319 317 317 318 318 315 315 313 312 311 310 307 306
321 321 321 322 322 322 322 320 320 319 318 318 318 318 318 317 318 318 318 316 311 312 309 307 308 310 310 309 308 308 308 307 304 303 302 302 302 300
321 321 321 321 322 322 322 322 321 319 319 318 318 318 318 318 317 317 317 312 308 309 308 302 301 301 300 298 297 298 299 297 297 296 295 295 296 295
319 320 320 321 321 322 321 319 320 320 320 319 319 319 318 318 317 318 317 316 315 310 308 293 294 294 292 292 292 292 293 291 291 291 291 291 290 290
298 306 310 313 315 318 319 316 314 315 316 318 318 319 318 318 318 318 317 316 308 304 302 290 290 288 289 289 289 289 289 288 288 287 287 286 285 285
292 292 296 300 300 304 307 308 302 299 299 304 308 311 312 314 315 315 314 303 293 294 296 290 287 286 286 286 285 285 286 286 286 284 284 283 284 283
290 289 287 291 294 297 298 296 292 290 293 293 294 296 298 300 300 303 303 303 293 292 293 290 286 286 284 284 284 283 282 280 280 280 280 280 280 281
284 284 285 286 287 290 292 292 288 288 287 288 287 287 290 291 292 294 296 298 295 288 288 289 286 285 284 282 281 281 280 279 279 278 278 279 279 280
282 282 282 284 286 286 285 284 285 287 287 284 282 281 281 283 284 285 287 289 289 288 288 289 287 286 283 282 280 279 279 278 278 278 278 277 277 278
281 281 284 285 285 284 285 286 285 283 282 281 279 279 279 281 282 283 284 285 286 287 288 288 288 286 286 283 280 279 279 278 278 279 279 279 279 279
282 282 282 281 281 281 282 281 281 281 280 279 279 279 279 279 280 281 280 280 281 281 283 284 286 286 282 281 281 279 279 279 278 278 278 278 279 279
281 280 280 280 279 279 279 279 280 280 280 279 279 279 279 279 278 278 279 280 280 279 279 279 280 280 279 279 279 279 278 278 278 278 278 278 278 278
279 279 279 278 278 277 277 276 278 278 278 278 279 279 279 279 278 278 278 278 279 279 279 279 279 278 278 276 277 278 278 278 277 277 277 277 278 278
277 277 276 276 276 276 275 275 274 275 277 277 276 277 277 277 278 278 277 277 277 276 276 277 278 280 281 280 276 276 277 276 276 276 276 276 276 277
274 274 274 274 273 273 273 273 273 273 274 274 274 275 275 276 276 276 276 277 276 276 276 275 276 277 279 279 277 275 274 275 275 275 275 275 276 275
272 272 272 272 271 271 271 271 271 272 272 272 273 273 274 274 274 274 273 273 274 275 275 274 274 274 275 275 276 275 274 272 272 273 274 275 276 277
270 270 269 269 269 269 269 270 270 270 271 271 271 272 273 273 273 273 273 273 272 273 272 273 273 274 275 276 275 274 273 272 272 271 272 272 274 276
268 268 267 267 267 267 267 268 268 268 268 269 270 270 271 272 272 272 272 271 271 271 272 272 272 273 273 272 273 273 271 271 271 272 272 270 270 271

GFSNE_925_thetae_120.txt.gz
Theta_e
333 332 331 330 329 329 329 328 327 328 325 324 324 323 323 323 323 322 320 321 319 319 318 318 318 318 317 317 317 317 317 318 318 318 318 317 317 317
331 331 330 330 329 329 328 328 326 326 326 323 323 324 323 323 323 322 320 321 320 319 319 319 319 319 318 318 318 317 317 316 317 317 317 317 317 317
330 330 330 329 329 328 328 327 326 325 325 324 322 322 322 322 322 322 321 321 321 320 319 319 318 319 319 319 318 318 318 317 317 318 318 317 317 317
330 329 329 329 328 327 327 326 325 324 324 324 322 321 320 321 321 321 321 321 322 322 320 318 318 319 319 319 319 318 318 318 318 318 318 318 317 317
329 329 328 327 326 326 325 324 326 325 324 323 320 320 319 320 320 320 320 320 320 321 321 320 320 320 320 319 319 319 318 318 319 318 318 317 317 317
327 328 327 326 325 325 324 325 325 323 322 321 320 319 319 318 319 319 319 319 318 317 318 318 318 319 318 318 318 318 318 317 317 317 317 317 315 313
325 325 325 324 324 324 325 324 323 322 321 320 319 319 319 317 318 318 318 315 311 312 310 310 312 312 311 312 314 315 315 315 315 314 312 309 308 305
322 323 323 322 322 323 322 322 322 321 320 319 319 318 318 318 318 317 317 310 308 307 305 300 303 303 302 303 304 305 307 306 307 305 302 301 299 298
305 310 314 319 321 321 321 322 322 321 320 320 319 319 319 318 318 318 318 315 315 309 306 296 296 298 296 296 295 295 295 296 298 296 296 295 293 292
296 297 300 302 305 311 315 312 309 311 314 316 317 318 318 318 318 318 318 315 310 307 306 292 291 290 291 291 290 290 289 289 289 289 289 290 289 289
289 291 293 296 297 300 302 304 297 296 297 301 304 304 311 314 317 317 317 307 295 296 298 293 289 287 287 286 286 286 286 286 286 286 285 286 285 283
285 285 287 289 294 297 295 292 291 289 290 292 295 297 298 299 303 304 308 312 296 292 294 292 287 286 284 284 283 283 283 282 282 282 282 281 281 282
283 283 283 285 286 291 293 291 286 288 287 288 286 287 289 290 291 294 295 299 296 291 292 294 288 286 284 281 280 281 281 280 280 280 280 280 281 284
284 283 282 283 285 285 285 286 287 287 286 283 282 281 281 281 282 284 286 289 289 289 289 290 288 286 283 281 279 279 280 280 280 280 279 279 279 279
282 282 282 283 283 283 284 284 284 284 282 281 280 280 280 281 283 283 283 284 286 286 287 288 288 287 285 282 279 279 280 279 280 280 281 281 281 281
283 283 283 283 282 282 282 282 282 282 282 281 281 281 281 282 282 282 282 282 281 281 284 285 286 286 283 281 281 281 280 280 279 280 280 280 280 281
283 283 283 283 283 283 282 281 282 282 282 282 282 282 281 281 281 281 282 282 282 281 280 280 281 281 281 281 281 280 280 280 280 279 280 280 280 280
283 283 282 282 282 282 281 281 281 281 281 281 281 281 280 281 280 280 280 281 282 281 281 280 280 280 280 279 279 280 280 280 279 279 279 280 280 280
281 281 280 280 280 280 280 280 279 279 279 280 280 280 280 279 280 279 279 279 279 280 280 280 281 282 283 280 278 279 280 279 279 279 278 279 280 280
278 278 278 278 278 278 278 278 278 278 278 278 279 279 279 279 279 279 279 279 278 278 278 278 279 281 283 282 279 275 277 278 278 279 278 278 278 277
276 276 276 276 276 276 276 276 276 276 276 277 277 277 278 278 277 276 276 276 278 278 277 277 276 277 278 278 278 277 275 273 273 275 276 278 279 279
274 274 273 273 273 273 274 274 275 275 276 276 276 276 276 276 276 276 276 276 276 276 275 275 276 276 277 279 279 277 276 274 273 272 272 273 276 280
271 271 271 270 270 271 271 272 272 273 273 274 275 275 275 276 275 275 275 275 275 275 275 275 276 276 276 276 277 276 274 274 274 274 275 272 271 271

GFSNE_925_thetae_123.txt.gz
Theta_e
334 334 334 334 333 332 331 330 331 333 333 328 326 327 327 325 325 324 324 323 321 321 321 320 319 319 318 318 317 319 319 318 317 318 317 318 319 319
334 334 333 334 333 332 332 331 330 330 333 328 327 326 326 324 324 324 324 324 323 321 319 321 319 318 318 318 317 317 318 318 318 318 318 318 318 318
333 331 332 333 333 332 331 330 330 330 330 328 326 326 325 324 323 323 324 323 323 322 318 320 320 318 318 318 318 318 317 317 317 316 316 316 317 317
331 325 331 331 331 331 329 329 330 329 329 327 326 324 324 323 323 323 323 323 322 321 319 320 319 319 318 319 319 319 318 318 318 318 317 317 317 317
331 331 331 331 331 331 329 329 329 328 327 326 325 325 323 323 322 322 322 322 322 321 322 321 320 319 319 319 319 319 319 319 318 318 318 318 317 318
328 329 330 330 329 329 328 328 328 327 327 327 325 323 321 320 321 321 320 320 319 319 321 321 320 319 318 318 318 318 318 319 318 318 317 317 317 318
318 325 326 327 328 328 328 327 327 326 326 324 322 321 320 319 319 320 320 317 315 317 316 317 320 319 318 318 318 318 318 319 319 318 317 317 316 316
301 309 316 318 320 325 325 325 324 324 324 322 322 320 320 320 319 319 319 310 309 310 313 307 311 311 311 311 311 314 316 313 312 313 315 314 314 310
292 294 298 301 306 312 320 322 322 322 322 321 321 320 320 319 319 318 318 314 315 310 309 297 300 302 302 301 302 304 305 305 305 304 303 304 305 303
289 288 291 293 297 301 303 306 307 306 306 310 313 315 316 318 319 318 318 315 311 309 307 293 294 294 293 294 293 295 297 297 297 297 296 296 296 295
286 286 287 288 292 294 298 296 292 291 293 293 293 295 298 307 313 317 317 308 296 300 302 297 291 288 289 290 290 290 290 290 291 291 291 291 290 289
285 285 284 285 288 291 291 292 292 290 290 292 293 294 296 296 301 302 304 309 299 294 298 296 288 288 285 285 286 287 287 287 286 286 286 285 285 285
285 284 284 283 284 286 287 286 286 287 289 290 290 289 289 291 290 292 293 296 297 292 293 297 289 287 285 282 282 283 284 283 283 283 283 283 283 282
284 284 283 283 283 283 284 284 285 285 284 283 283 282 282 284 284 287 287 289 289 290 290 292 289 288 282 281 279 280 281 282 282 282 281 282 283 284
284 284 284 284 283 284 283 283 284 283 283 283 282 282 282 283 283 284 285 285 287 288 289 290 290 287 285 280 279 279 279 280 280 280 280 280 280 281
284 284 284 284 284 284 283 283 283 283 283 284 283 283 283 283 283 284 284 283 282 282 284 285 286 287 282 281 280 280 280 281 281 281 282 282 281 282
284 284 284 284 284 284 283 282 282 283 283 283 283 283 283 283 282 283 283 283 283 282 281 281 282 282 282 282 282 281 281 280 280 280 281 281 281 281
283 283 282 282 283 283 282 282 281 281 282 283 283 282 282 282 282 281 282 283 283 282 282 281 281 281 281 280 281 281 281 281 280 280 281 281 281 281
281 281 281 281 281 281 281 281 281 280 281 281 282 282 282 282 282 281 281 281 281 281 281 282 283 283 283 281 279 280 281 280 279 279 280 281 282 281
279 279 279 279 279 279 279 278 279 279 280 280 280 280 280 281 281 281 281 280 280 280 279 280 280 282 282 281 279 276 279 279 280 280 279 279 279 279
277 277 276 276 276 277 276 277 278 278 278 279 279 279 279 280 279 279 278 279 280 280 279 278 278 279 279 279 277 276 275 275 276 277 277 279 281 280
274 274 274 273 274 274 275 275 276 276 277 278 278 278 278 279 278 278 278 279 278 278 278 277 278 278 280 281 280 278 276 275 274 273 273 275 277 280
272 272 272 272 271 272 272 273 273 274 274 275 275 276 276 277 277 277 277 277 277 277 277 278 278 278 278 279 278 277 275 275 275 275 275 274 273 272

GFSNE_925_thetae_126.txt.gz
Theta_e
332 331 331 332 334 333 333 332 329 328 328 330 330 328 327 328 328 327 327 326 326 325 322 322 322 321 321 321 321 319 318 318 317 317 316 316 316 316
333 333 333 331 333 332 332 332 331 329 330 329 330 328 327 328 327 326 325 325 324 324 323 323 323 322 320 320 321 320 319 318 318 318 317 316 317 317
335 333 331 328 330 323 325 330 332 331 330 329 329 328 327 327 326 325 324 324 324 324 324 323 322 322 321 320 320 320 318 317 318 319 318 318 318 318
334 334 332 332 324 323 327 331 331 331 330 329 329 329 327 326 325 325 324 323 323 323 323 323 323 321 320 321 319 318 318 317 317 318 318 317 317 317
328 330 332 330 328 329 331 330 330 329 329 329 328 328 326 325 325 324 323 323 323 323 323 323 323 322 318 319 320 318 317 317 318 317 317 317 317 317
314 317 320 319 324 330 330 330 330 329 329 328 328 327 326 325 324 323 322 323 322 322 322 322 322 322 319 319 320 320 318 318 318 318 318 318 318 318
303 306 306 305 308 312 315 323 328 328 328 327 326 325 323 321 321 321 321 321 320 320 320 321 321 321 320 320 319 319 319 319 319 319 318 318 318 318
293 296 297 301 305 307 309 314 319 319 326 325 324 322 322 321 321 320 320 314 310 314 314 313 314 314 319 319 319 319 318 318 318 318 318 318 318 317
287 289 290 292 296 300 303 302 305 304 306 312 315 320 320 321 321 319 319 316 317 316 312 304 304 305 306 308 316 317 317 318 317 317 317 317 315 313
286 285 286 287 290 295 297 297 297 300 298 298 299 298 300 307 311 318 319 318 314 313 309 296 297 296 297 299 300 304 304 306 308 307 311 312 310 307
285 285 284 285 285 291 292 291 291 290 291 293 294 295 295 296 298 308 310 309 298 303 304 305 294 291 292 292 293 294 295 296 297 298 298 300 298 298
285 285 284 284 285 285 287 287 286 286 288 289 290 291 292 292 296 296 298 300 300 295 301 301 291 291 286 288 289 290 290 290 292 293 292 291 292 292
285 284 284 284 284 284 284 284 284 285 286 286 286 286 286 287 288 290 292 294 295 292 292 296 290 289 287 284 284 286 287 286 286 286 287 288 288 289
285 284 284 284 284 284 284 284 284 284 284 284 283 283 284 284 284 285 286 288 290 291 293 293 290 288 283 281 281 282 284 284 284 283 283 283 282 283
284 284 284 284 284 283 283 284 284 284 284 284 283 283 283 284 285 284 285 285 286 288 289 291 294 290 288 281 280 280 281 281 282 282 282 283 283 283
283 283 283 284 283 284 283 282 283 283 283 283 283 283 283 283 284 284 283 283 282 282 284 285 286 288 283 283 282 281 281 281 281 282 282 282 282 283
282 282 282 283 283 283 283 282 281 281 282 283 283 282 282 282 282 283 283 282 282 282 281 281 282 282 281 281 281 281 281 281 281 282 282 282 282 282
281 281 281 281 281 281 280 281 281 281 281 281 282 282 282 282 282 282 282 282 282 282 283 282 281 281 281 280 281 281 281 281 281 281 281 281 282 281
279 279 278 278 278 278 278 278 279 278 280 280 281 281 281 282 282 281 281 281 280 280 281 282 283 283 281 280 279 280 280 280 280 280 281 282 281 281
276 277 276 276 276 276 276 277 278 278 278 279 279 279 280 280 279 279 279 280 280 280 280 280 280 282 281 280 278 276 280 280 280 280 280 280 280 280
274 274 274 273 273 274 275 275 276 276 276 278 278 278 279 279 279 279 279 279 279 279 278 278 279 280 280 279 277 275 275 278 279 279 278 279 279 278
272 272 272 272 271 271 272 273 273 274 274 275 275 276 277 278 278 277 277 278 278 278 277 278 278 279 280 278 277 276 275 274 274 274 276 276 278 279
270 270 270 270 269 269 269 270 270 271 271 271 272 274 276 276 276 277 277 276 277 277 278 278 278 278 279 279 278 276 275 275 275 275 275 275 273 273

GFSNE_925_thetae_129.txt.gz
Theta_e
332 331 332 332 331 331 332 333 328 328 326 328 329 329 329 329 328 328 327 327 327 326 326 325 323 321 322 323 322 321 319 318 317 316 315 315 315 316
332 331 331 332 331 331 331 332 329 325 327 327 329 329 329 328 328 327 327 326 326 326 326 325 325 323 322 322 322 322 320 319 317 318 317 316 316 316
332 332 332 331 331 331 332 328 322 322 323 327 328 328 328 329 328 327 327 326 326 326 326 325 325 325 323 322 321 322 322 321 319 318 318 317 317 316
325 331 332 332 332 331 328 325 324 325 327 326 329 329 328 328 327 327 327 327 326 324 324 323 323 324 324 322 322 322 322 321 321 320 318 318 318 317
310 307 308 316 317 317 323 326 327 327 328 328 328 327 328 328 327 326 326 325 325 323 323 322 322 323 323 324 323 323 322 321 320 321 319 318 318 319
301 300 299 300 300 306 308 316 321 327 329 328 328 327 327 327 327 325 324 325 324 322 322 323 322 322 323 323 323 322 322 320 320 319 319 318 317 318
295 295 294 296 297 299 301 305 310 314 321 328 327 327 326 324 324 324 323 322 322 322 322 321 321 322 322 322 322 322 321 320 320 319 318 318 317 317
289 290 290 293 296 296 296 298 299 301 304 305 316 325 326 324 322 322 322 320 315 320 319 319 320 319 319 319 321 321 320 318 318 320 319 317 317 317
286 286 287 289 292 294 293 293 294 294 295 296 297 295 296 296 301 316 320 320 319 318 315 312 313 311 310 312 313 313 316 319 319 319 319 318 318 318
285 285 285 285 286 290 291 290 290 290 290 291 292 290 293 294 297 297 303 305 314 317 316 304 306 304 304 303 305 305 307 312 317 318 318 318 318 317
284 284 284 284 284 286 287 286 287 287 288 288 289 290 291 292 293 298 299 299 302 305 307 311 298 296 295 297 297 298 300 301 304 310 314 313 312 311
284 284 284 284 284 284 284 284 284 284 286 287 288 288 288 289 289 290 289 290 295 297 299 300 293 295 289 290 291 292 292 294 296 297 297 299 300 302
284 284 284 284 284 284 284 284 284 284 285 284 285 285 285 285 286 287 287 286 287 293 292 294 291 290 289 284 286 288 289 288 289 289 291 291 292 296
284 284 284 284 284 282 283 284 284 284 284 283 283 283 283 284 285 285 285 285 286 286 289 291 292 292 285 282 282 284 285 286 286 286 287 287 289 290
283 283 283 283 283 283 281 282 283 283 283 282 282 282 283 283 284 284 285 285 285 286 287 289 291 290 290 284 281 281 283 283 284 284 284 285 285 285
282 281 281 281 281 281 281 280 281 281 282 282 282 282 282 282 283 283 282 283 282 282 283 285 286 287 284 283 282 281 282 281 283 283 283 283 283 284
280 279 279 279 278 278 278 278 279 280 281 281 281 282 282 281 282 282 282 282 282 282 281 281 281 282 282 282 281 281 281 281 281 282 282 281 282 282
276 276 276 276 276 276 276 277 277 278 279 280 280 280 280 281 281 281 281 281 281 281 281 282 282 281 281 281 281 281 281 281 281 281 282 282 282 282
274 274 274 274 274 274 275 275 277 277 278 279 279 279 280 279 279 280 280 280 280 280 280 282 282 281 281 280 280 281 281 281 281 281 282 282 281 281
272 272 272 271 272 271 272 273 274 274 275 276 276 277 278 278 278 278 279 279 280 279 280 280 281 280 280 279 276 276 280 280 281 280 280 281 281 281
270 270 271 270 270 270 270 270 271 271 272 273 274 275 276 277 277 277 277 278 278 277 278 279 279 280 279 278 276 275 277 279 280 280 279 279 279 279
269 269 269 268 268 268 268 268 268 269 269 270 271 273 274 276 276 276 276 276 277 277 278 278 278 279 279 278 276 274 274 274 276 277 278 278 279 279
269 268 268 267 267 267 266 267 267 267 267 268 269 270 272 273 275 275 275 275 275 277 277 277 279 279 277 276 276 275 275 275 274 275 275 274 274 276

GFSNE_925_thetae_132.txt.gz
Theta_e
331 331 332 332 332 332 332 330 328 327 325 326 328 328 329 329 328 328 327 328 327 327 326 326 326 325 323 324 324 323 322 320 318 317 316 315 315 315
332 331 330 331 331 331 330 330 331 329 326 326 323 323 327 328 328 328 328 328 328 327 326 326 326 326 325 323 323 324 324 322 320 319 317 316 315 315
332 332 331 331 331 331 331 331 331 330 320 321 321 322 322 324 323 325 328 328 328 327 326 326 326 326 326 325 323 322 323 323 322 320 319 317 316 316
320 326 323 328 330 328 330 329 329 328 323 322 323 323 324 326 325 326 327 328 328 327 326 326 325 325 326 325 324 323 322 322 323 322 321 319 317 317
303 300 302 309 311 314 315 322 322 324 324 323 324 325 326 327 327 327 327 327 327 327 327 326 325 324 324 324 324 324 324 323 322 322 322 321 319 318
294 300 294 297 300 302 302 307 309 314 318 325 326 326 327 327 326 326 325 325 325 326 326 326 325 322 322 322 322 322 323 323 321 322 321 322 321 320
290 290 290 292 294 295 297 298 302 305 307 311 318 324 326 325 325 325 325 325 324 324 325 324 323 322 322 322 321 322 322 323 322 322 321 322 322 321
288 287 289 290 293 292 291 292 294 296 296 298 303 303 304 301 304 305 318 324 320 322 323 321 321 320 320 320 319 321 321 321 321 321 321 321 321 321
285 285 286 286 288 290 289 290 290 290 290 291 291 290 291 291 293 294 301 303 317 317 319 317 318 317 318 317 317 318 318 319 319 319 319 319 321 320
285 284 284 285 285 287 287 287 287 288 288 288 288 288 288 288 289 292 295 296 302 306 309 309 315 314 316 313 309 311 315 316 315 315 314 316 319 319
284 285 284 284 284 284 285 285 285 286 286 286 287 287 288 288 289 293 290 291 298 303 304 304 304 301 300 300 302 302 303 305 307 309 310 312 315 318
284 284 284 283 283 283 283 283 283 284 284 286 286 286 286 286 287 287 286 286 289 295 292 293 294 296 293 292 292 293 295 296 298 301 304 306 305 306
283 283 284 283 282 282 283 282 282 283 284 284 284 284 285 285 285 285 285 285 284 287 290 288 291 291 291 287 287 288 290 290 291 292 292 295 297 300
282 281 282 282 282 281 281 281 282 282 282 281 281 281 281 282 284 284 284 284 283 283 285 286 288 290 288 284 285 285 286 286 287 288 288 288 290 290
280 280 280 279 279 279 279 279 281 280 280 280 281 281 281 282 283 283 283 283 283 283 284 286 286 287 287 285 282 283 284 284 286 286 286 287 287 286
278 277 277 277 277 277 277 277 278 279 280 280 280 281 281 281 282 282 282 282 282 282 282 283 284 285 284 283 283 282 283 282 283 284 285 284 285 286
275 275 274 274 274 274 275 275 276 277 278 278 279 279 279 281 281 281 282 282 281 280 282 281 281 282 282 282 281 282 282 281 282 283 283 282 282 283
272 271 271 271 271 271 272 273 273 274 275 276 277 278 278 279 279 279 280 281 280 280 281 282 282 282 281 281 281 281 282 281 281 282 282 282 282 282
271 271 270 270 270 270 270 270 271 271 273 273 274 275 276 277 277 278 278 279 279 280 280 281 281 280 278 278 280 281 281 282 281 282 282 282 281 282
269 269 270 269 268 268 268 268 269 269 270 271 272 273 274 274 276 276 277 278 278 278 279 280 280 280 279 274 276 277 281 281 281 281 281 281 281 281
269 268 268 268 267 267 267 267 267 267 268 268 270 270 272 272 274 275 276 276 277 277 277 278 279 279 278 278 276 275 278 280 281 281 280 280 279 279
269 268 268 267 266 266 266 266 266 265 266 266 267 269 270 271 272 274 274 275 275 276 277 278 278 279 279 277 275 274 275 276 277 279 279 279 279 279
269 268 268 267 266 266 265 265 264 263 263 264 266 267 268 269 271 272 273 273 274 275 276 278 279 278 277 276 275 274 273 274 275 274 274 274 277 279

GFSNE_925_thetae_135.txt.gz
Theta_e
333 333 333 332 332 331 331 331 329 329 325 326 328 329 329 329 328 328 328 328 328 327 327 327 326 326 326 325 324 325 324 323 320 318 317 317 316 316
332 333 333 332 333 332 332 332 331 330 328 327 328 329 329 328 327 328 328 328 328 328 327 327 327 326 326 326 325 324 325 324 323 321 319 318 317 317
331 331 331 330 331 331 331 331 330 329 328 328 327 327 324 323 326 327 327 326 325 327 327 327 327 327 326 326 326 326 324 324 324 324 322 320 319 318
319 329 326 329 330 330 330 329 329 329 328 327 323 322 322 323 323 323 323 323 323 324 325 326 327 326 325 325 326 326 326 325 323 323 324 324 322 320
296 298 301 310 309 309 316 325 325 327 327 326 324 323 323 324 325 325 325 326 326 326 325 326 327 327 326 325 325 324 325 325 325 324 322 323 323 323
292 291 292 294 298 301 304 301 309 314 316 321 324 324 325 325 325 326 326 326 326 326 326 326 326 326 326 326 325 324 323 323 323 324 323 322 322 323
292 293 292 290 291 294 295 297 299 302 304 309 312 317 315 315 311 310 316 324 325 325 324 324 326 325 325 325 325 323 321 321 321 321 321 322 322 320
289 290 291 291 288 289 290 293 290 291 292 296 298 299 297 294 295 295 298 308 319 322 321 323 323 324 324 323 323 321 320 321 321 321 321 321 321 319
285 286 287 289 290 290 290 290 289 289 289 289 289 288 288 287 289 291 294 296 301 310 305 310 318 321 321 322 319 318 318 318 319 319 319 319 319 319
285 283 284 284 285 286 287 286 286 287 287 286 286 286 286 286 287 288 290 291 295 300 302 304 310 313 315 313 313 314 315 314 314 312 313 313 315 317
284 284 283 283 283 283 284 284 284 284 285 285 285 285 286 285 286 289 286 288 293 297 296 293 298 301 306 306 304 303 304 303 304 304 306 311 313 312
282 282 283 282 282 281 281 282 282 282 283 285 286 286 285 285 284 283 283 284 286 291 288 288 292 294 296 294 294 295 295 294 295 297 299 302 305 307
280 279 280 280 280 280 280 280 280 281 281 281 281 282 283 283 283 283 283 283 283 284 287 285 287 290 291 290 291 291 291 291 292 293 294 295 297 298
277 278 278 277 278 278 278 279 279 279 279 279 280 280 281 281 282 283 283 283 282 282 283 284 284 287 289 288 287 287 287 288 288 289 290 291 292 292
275 275 275 275 276 276 276 277 278 278 278 277 278 279 279 281 281 282 283 282 282 282 282 283 282 284 285 286 285 284 284 285 286 287 287 288 289 289
273 273 273 273 273 273 274 274 274 275 275 275 276 278 279 279 280 280 281 282 282 282 282 282 283 283 283 283 283 283 283 283 283 284 285 284 285 286
271 270 269 269 269 269 270 271 272 272 272 273 274 274 276 277 277 278 279 280 280 280 281 282 282 281 281 281 281 281 282 282 283 283 283 283 283 284
269 269 268 268 268 268 268 268 269 269 270 271 272 273 273 274 275 276 277 278 279 279 279 280 281 281 281 280 280 281 281 281 282 282 282 282 282 282
269 268 268 268 267 267 267 267 267 267 268 268 269 270 271 272 273 274 275 276 277 277 278 280 280 280 277 276 280 280 281 281 281 282 282 282 281 282
269 268 268 267 266 266 266 266 266 266 266 266 267 268 269 269 271 273 273 274 275 276 277 278 278 278 277 277 276 278 280 281 281 281 281 281 281 281
269 268 268 267 266 266 265 265 265 264 264 264 266 267 268 268 269 271 272 273 274 274 275 277 277 278 278 277 277 276 277 279 281 280 280 279 279 279
270 269 268 267 266 266 265 264 263 263 263 263 263 265 267 267 268 269 271 271 272 273 273 276 278 278 278 277 276 275 275 276 278 279 279 279 280 279
270 269 268 267 267 266 265 265 264 263 263 262 262 264 265 267 268 269 270 271 271 272 273 274 277 277 276 276 275 274 275 275 275 275 275 276 278 279